Mount Vernon, IL

5:22 AM CST on February 18, 2018 (GMT -0600)
Mount Vernon

Weather History for KMVN - December, 2014

Change the Weather History Date:

Tuesday, December 2, 2014

  Actual Average Record
Temperature  
Mean Temperature 30 °F -  
Max Temperature 33 °F 47 °F 64 °F (1998)
Min Temperature 28 °F 31 °F 19 °F (2006)
Degree Days  
Heating Degree Days 34    
Moisture  
Dew Point 24 °F    
Average Humidity 75    
Maximum Humidity 81    
Minimum Humidity 69    
Precipitation  
Precipitation 0.00 in - - ()
Sea Level Pressure  
Sea Level Pressure 30.28 in    
Wind  
Wind Speed 6 mph (WSW)    
Max Wind Speed 15 mph    
Max Gust Speed 17 mph    
Visibility 9 miles    
Events      
Averages and records for this station are not official NWS values.
T = Trace of Precipitation, MM = Missing Value Source: NWS Daily Summary

Daily Weather History Graph

Daily Weather History Graph

Search for Another Location

Airport or City:

Trip Planner

Search our weather history database for the weather conditions in past years. The results will help you decide how hot, cold, wet, or windy it might be!

Date:

Astronomy

Dec. 02, 2014 Rise Set
Actual Time 6:54 AM CST 4:35 PM CST
Civil Twilight 6:25 AM CST 5:04 PM CST
Nautical Twilight 5:52 AM CST 5:37 PM CST
Astronomical Twilight 5:20 AM CST 6:09 PM CST
Moon 2:14 PM CST (12/2) 2:40 AM CST (12/2)
Length of Visible Light 10h 39m
Length of Day
9h 40m
Waxing Gibbous, 84% of the Moon is Illuminated
Dec 2
Waxing Gibbous
Dec 6
Full
Dec 14
Last Quarter
Dec 21
New
Dec 28
First Quarter

Hourly Weather History & Observations

Time (CST) Temp. Windchill Dew Point Humidity Pressure Visibility Wind Dir Wind Speed Gust Speed Precip Events Conditions
12:15 AM 30.2 °F 24.3 °F 21.2 °F 69% 30.42 in 10.0 mi NNE 5.8 mph - N/A   Overcast
12:35 AM 30.2 °F 24.3 °F 21.2 °F 69% 30.41 in 10.0 mi NNE 5.8 mph - N/A   Overcast
12:55 AM 30.2 °F 23.4 °F 21.2 °F 69% 30.41 in 10.0 mi NNE 6.9 mph - N/A   Overcast
1:15 AM 28.4 °F 21.2 °F 21.2 °F 74% 30.41 in 10.0 mi North 6.9 mph - N/A   Overcast
1:35 AM 28.4 °F 21.2 °F 21.2 °F 74% 30.40 in 10.0 mi NNE 6.9 mph - N/A   Overcast
1:55 AM 28.4 °F 20.4 °F 21.2 °F 74% 30.39 in 10.0 mi NNE 8.1 mph - N/A   Overcast
2:15 AM 28.4 °F 24.6 °F 21.2 °F 74% 30.39 in 10.0 mi NNE 3.5 mph - N/A   Overcast
2:35 AM 28.4 °F 21.2 °F 21.2 °F 74% 30.38 in 10.0 mi NNE 6.9 mph - N/A   Overcast
2:55 AM 28.4 °F 22.2 °F 21.2 °F 74% 30.38 in 10.0 mi NNE 5.8 mph - N/A   Overcast
3:15 AM 28.4 °F 22.2 °F 21.2 °F 74% 30.37 in 10.0 mi NNE 5.8 mph - N/A   Overcast
3:35 AM 28.4 °F 23.3 °F 21.2 °F 74% 30.37 in 10.0 mi NNE 4.6 mph - N/A   Overcast
3:55 AM 28.4 °F 24.6 °F 21.2 °F 74% 30.37 in 10.0 mi NNE 3.5 mph - N/A   Overcast
4:15 AM 28.4 °F 21.2 °F 21.2 °F 74% 30.36 in 10.0 mi NNE 6.9 mph - N/A   Overcast
4:35 AM 28.4 °F 23.3 °F 21.2 °F 74% 30.36 in 10.0 mi NNE 4.6 mph - N/A   Overcast
4:55 AM 28.4 °F 22.2 °F 21.2 °F 74% 30.36 in 10.0 mi NNE 5.8 mph - N/A   Overcast
5:15 AM 28.4 °F 21.2 °F 21.2 °F 74% 30.35 in 10.0 mi NE 6.9 mph - N/A   Overcast
5:35 AM 28.4 °F 22.2 °F 21.2 °F 74% 30.35 in 10.0 mi NNE 5.8 mph - N/A   Overcast
5:55 AM 28.4 °F 22.2 °F 21.2 °F 74% 30.34 in 10.0 mi NNE 5.8 mph - N/A   Overcast
6:15 AM 28.4 °F 23.3 °F 21.2 °F 74% 30.34 in 10.0 mi NE 4.6 mph - N/A   Overcast
6:35 AM 28.4 °F - 21.2 °F 74% 30.34 in 10.0 mi Calm Calm - N/A   Overcast
6:55 AM 28.4 °F 23.3 °F 21.2 °F 74% 30.34 in 10.0 mi NNE 4.6 mph - N/A   Overcast
7:15 AM 28.4 °F 23.3 °F 21.2 °F 74% 30.33 in 10.0 mi NE 4.6 mph - N/A   Overcast
7:35 AM 28.4 °F 24.6 °F 21.2 °F 74% 30.32 in 10.0 mi NE 3.5 mph - N/A   Overcast
7:55 AM 28.4 °F 23.3 °F 21.2 °F 74% 30.32 in 10.0 mi NE 4.6 mph - N/A   Overcast
8:15 AM 28.4 °F 23.3 °F 21.2 °F 74% 30.32 in 10.0 mi North 4.6 mph - N/A   Overcast
8:35 AM 28.4 °F 24.6 °F 21.2 °F 74% 30.32 in 10.0 mi NNE 3.5 mph - N/A   Overcast
8:55 AM 30.2 °F - 23.0 °F 75% 30.32 in 10.0 mi Calm Calm - N/A   Overcast
9:15 AM 30.2 °F - 23.0 °F 75% 30.32 in 10.0 mi Calm Calm - N/A   Overcast
9:35 AM 30.2 °F - 23.0 °F 75% 30.32 in 10.0 mi Calm Calm - N/A   Overcast
9:55 AM 30.2 °F - 24.8 °F 80% 30.32 in 10.0 mi Calm Calm - N/A   Overcast
10:15 AM 30.2 °F - 24.8 °F 80% 30.31 in 10.0 mi Calm Calm - N/A   Overcast
10:35 AM 30.2 °F - 24.8 °F 80% 30.31 in 9.0 mi Calm Calm - N/A   Overcast
10:55 AM 30.2 °F - 24.8 °F 80% 30.31 in 10.0 mi Calm Calm - N/A   Overcast
11:15 AM 32.0 °F - 24.8 °F 75% 30.29 in 9.0 mi Calm Calm - N/A   Overcast
11:35 AM 32.0 °F 27.5 °F 24.8 °F 75% 30.28 in 8.0 mi SW 4.6 mph - N/A   Overcast
11:55 AM 33.8 °F 29.6 °F 26.6 °F 75% 30.27 in 8.0 mi SSW 4.6 mph - N/A   Overcast
12:15 PM 33.8 °F 28.6 °F 26.6 °F 75% 30.26 in 9.0 mi SW 5.8 mph - N/A   Overcast
12:35 PM 33.8 °F 29.6 °F 26.6 °F 75% 30.25 in 9.0 mi SW 4.6 mph - N/A   Overcast
12:55 PM 33.8 °F 28.6 °F 24.8 °F 70% 30.24 in 9.0 mi SW 5.8 mph - N/A   Overcast
1:15 PM 33.8 °F 29.6 °F 26.6 °F 75% 30.23 in 9.0 mi SW 4.6 mph - N/A   Overcast
1:35 PM 33.8 °F 27.7 °F 26.6 °F 75% 30.23 in 8.0 mi SW 6.9 mph - N/A   Overcast
1:55 PM 33.8 °F 27.7 °F 26.6 °F 75% 30.22 in 8.0 mi WSW 6.9 mph - N/A   Overcast
2:15 PM 33.8 °F 27.7 °F 26.6 °F 75% 30.22 in 8.0 mi SSW 6.9 mph - N/A   Overcast
2:35 PM 33.8 °F 27.7 °F 26.6 °F 75% 30.21 in 8.0 mi SSW 6.9 mph - N/A   Overcast
2:55 PM 33.8 °F 27.0 °F 26.6 °F 75% 30.21 in 9.0 mi SSW 8.1 mph - N/A   Overcast
3:15 PM 33.8 °F 27.0 °F 26.6 °F 75% 30.20 in 10.0 mi SW 8.1 mph - N/A   Overcast
3:35 PM 33.8 °F 27.0 °F 26.6 °F 75% 30.21 in 9.0 mi SSW 8.1 mph - N/A   Overcast
3:55 PM 33.8 °F 26.4 °F 26.6 °F 75% 30.21 in 8.0 mi SSW 9.2 mph - N/A   Overcast
4:15 PM 33.8 °F 26.4 °F 26.6 °F 75% 30.20 in 9.0 mi SSW 9.2 mph - N/A   Overcast
4:35 PM 33.8 °F 26.4 °F 26.6 °F 75% 30.20 in 9.0 mi SSW 9.2 mph - N/A   Overcast
4:55 PM 33.8 °F 27.7 °F 26.6 °F 75% 30.19 in 10.0 mi SSW 6.9 mph - N/A   Overcast
5:15 PM 33.8 °F 27.0 °F 26.6 °F 75% 30.20 in 10.0 mi SSW 8.1 mph - N/A   Overcast
5:35 PM 33.8 °F 27.7 °F 26.6 °F 75% 30.19 in 9.0 mi SSW 6.9 mph - N/A   Overcast
5:55 PM 33.8 °F 26.4 °F 26.6 °F 75% 30.20 in 7.0 mi SSW 9.2 mph - N/A   Overcast
6:15 PM 33.8 °F 27.0 °F 26.6 °F 75% 30.20 in 9.0 mi SSW 8.1 mph - N/A   Overcast
6:35 PM 33.8 °F 27.0 °F 26.6 °F 75% 30.20 in 10.0 mi SSW 8.1 mph - N/A   Overcast
6:55 PM 33.8 °F 25.8 °F 26.6 °F 75% 30.20 in 9.0 mi SSW 10.4 mph - N/A   Overcast
7:15 PM 33.8 °F 26.4 °F 26.6 °F 75% 30.21 in 8.0 mi SSW 9.2 mph - N/A   Overcast
7:35 PM 33.8 °F 27.0 °F 26.6 °F 75% 30.20 in 7.0 mi SSW 8.1 mph - N/A   Overcast
7:55 PM 33.8 °F 26.4 °F 26.6 °F 75% 30.19 in 6.0 mi SSW 9.2 mph - N/A   Overcast
8:15 PM 33.8 °F 26.4 °F 26.6 °F 75% 30.19 in 5.0 mi SSW 9.2 mph - N/A   Overcast
8:35 PM 33.8 °F 25.8 °F 28.4 °F 81% 30.19 in 4.0 mi SSW 10.4 mph - N/A   Overcast
8:55 PM 33.8 °F 25.3 °F 28.4 °F 81% 30.19 in 9.0 mi SW 11.5 mph 17.3 mph N/A   Overcast
9:15 PM 33.8 °F 23.9 °F 28.4 °F 81% 30.21 in 10.0 mi SW 15.0 mph - N/A   Overcast
9:35 PM 33.8 °F 25.3 °F 26.6 °F 75% 30.21 in 10.0 mi WSW 11.5 mph 17.3 mph N/A   Overcast
9:55 PM 33.8 °F 27.7 °F 26.6 °F 75% 30.21 in 10.0 mi West 6.9 mph - N/A   Overcast
10:15 PM 33.8 °F 27.7 °F 26.6 °F 75% 30.21 in 10.0 mi WSW 6.9 mph - N/A   Overcast
10:35 PM 33.8 °F 27.7 °F 26.6 °F 75% 30.22 in 10.0 mi WSW 6.9 mph - N/A   Overcast
10:55 PM 33.8 °F 25.8 °F 26.6 °F 75% 30.22 in 10.0 mi SW 10.4 mph - N/A   Overcast
11:15 PM 33.8 °F 24.8 °F 26.6 °F 75% 30.23 in 10.0 mi WSW 12.7 mph - N/A   Overcast
11:35 PM 33.8 °F 27.0 °F 26.6 °F 75% 30.23 in 10.0 mi WSW 8.1 mph - N/A   Overcast
11:55 PM 33.8 °F 26.4 °F 28.4 °F 81% 30.22 in 10.0 mi WSW 9.2 mph - N/A   Overcast